Terminal Aerodrome Forecast
Issued by NWS

Home | Current Version | Previous Version | Graphics & Text | Print | Product List | Glossary On
Versions: 1 2 3 4 5 6 7 8 9 10 11 12 13 14 15 16 17 18 19 20
000
FTUS43 KUNR 160500
TAFGCC
TAF
KGCC 160520Z 1606/1706 32017G25KT 6SM -SHRASN SCT010 BKN015
     FM161600 34015KT P6SM -SHSN SCT020 BKN035=

USA.gov is the U.S. government's official web portal to all federal, state and local government web resources and services.